Weather History for KHRI - August, 2013

Change the Weather History Date:

Wednesday, August 28, 2013

  Actual Average Record
Temperature  
Mean Temperature 72 °F -  
Max Temperature 91 °F 85 °F 101 °F (1986)
Min Temperature 54 °F 53 °F 40 °F (1960)
Cooling Degree Days 8    
Growing Degree Days 22 (Base 50)    
Moisture  
Dew Point 53 °F    
Average Humidity 53    
Maximum Humidity 87    
Minimum Humidity 23    
Precipitation  
Precipitation 0.00 in - - ()
Sea Level Pressure  
Sea Level Pressure 29.78 in    
Wind  
Wind Speed 3 mph (SW)    
Max Wind Speed 8 mph    
Max Gust Speed -    
Visibility 10 miles    
Events      
Averages and records for this station are not official NWS values.
T = Trace of Precipitation, MM = Missing Value Source: NWS Daily Summary

Daily Weather History Graph

Daily Weather History Graph

Search for Another Location

Airport or City:

Trip Planner

Search our weather history database for the weather conditions in past years. The results will help you decide how hot, cold, wet, or windy it might be!

Date:

Astronomy

Aug. 28, 2013 Rise Set
Actual Time 6:13 AM PDT 7:41 PM PDT
Civil Twilight 5:42 AM PDT 8:12 PM PDT
Nautical Twilight 5:04 AM PDT 8:50 PM PDT
Astronomical Twilight 4:24 AM PDT 9:30 PM PDT
Moon No Moon Rise 2:33 PM PDT
Length of Visible Light 14h 30m
Length of Day
13h 28m
Last Quarter, 46% of the Moon is Illuminated
Aug 28
Last Quarter
Sep 5
New
Sep 12
First Quarter
Sep 19
Full
Sep 26
Last Quarter

Hourly Weather History & Observations

Time (PDT) Temp. Heat Index Dew Point Humidity Pressure Visibility Wind Dir Wind Speed Gust Speed Precip Events Conditions
12:53 AM 61.0 °F - 50.0 °F 67% 29.73 in 10.0 mi South 5.8 mph - N/A   Clear
1:53 AM 60.1 °F - 50.0 °F 69% 29.73 in 10.0 mi Calm Calm - N/A   Clear
2:53 AM 60.1 °F - 50.0 °F 69% 29.73 in 10.0 mi SSW 4.6 mph - N/A   Clear
3:53 AM 55.9 °F - 51.1 °F 84% 29.73 in 10.0 mi ESE 3.5 mph - N/A   Clear
4:53 AM 54.0 °F - 50.0 °F 86% 29.75 in 10.0 mi Calm Calm - N/A   Clear
5:53 AM 57.9 °F - 51.1 °F 78% 29.77 in 10.0 mi Calm Calm - N/A   Clear
6:53 AM 55.9 °F - 52.0 °F 87% 29.80 in 10.0 mi SE 3.5 mph - N/A   Clear
7:53 AM 68.0 °F - 55.9 °F 65% 29.81 in 10.0 mi Calm Calm - N/A   Clear
8:53 AM 71.1 °F - 55.0 °F 57% 29.83 in 10.0 mi Calm Calm - N/A   Clear
9:53 AM 73.9 °F - 55.9 °F 53% 29.83 in 10.0 mi NNW 3.5 mph - N/A   Clear
10:53 AM 80.1 °F 80.2 °F 55.9 °F 43% 29.83 in 10.0 mi NW 4.6 mph - N/A   Clear
11:53 AM 82.0 °F 81.4 °F 55.0 °F 39% 29.83 in 10.0 mi Calm Calm - N/A   Clear
12:53 PM 86.0 °F 84.5 °F 55.0 °F 35% 29.82 in 10.0 mi Variable 4.6 mph - N/A   Clear
1:53 PM 87.1 °F 85.1 °F 54.0 °F 32% 29.80 in 10.0 mi West 3.5 mph - N/A   Clear
2:53 PM 90.0 °F 87.7 °F 54.0 °F 29% 29.78 in 10.0 mi West 5.8 mph - N/A   Clear
3:53 PM 89.1 °F 86.7 °F 53.1 °F 29% 29.77 in 10.0 mi WNW 8.1 mph - N/A   Clear
4:53 PM 91.0 °F - 51.1 °F 25% 29.76 in 10.0 mi WNW 6.9 mph - N/A   Clear
5:53 PM 91.9 °F - 48.9 °F 23% 29.75 in 10.0 mi NNW 4.6 mph - N/A   Clear
6:53 PM 89.1 °F - 51.1 °F 27% 29.75 in 10.0 mi East 4.6 mph - N/A   Clear
7:53 PM 77.0 °F - 55.9 °F 48% 29.75 in 10.0 mi East 4.6 mph - N/A   Clear
8:53 PM 75.9 °F - 55.9 °F 50% 29.78 in 10.0 mi ESE 5.8 mph - N/A   Clear
9:53 PM 72.0 °F - 53.1 °F 51% 29.78 in 10.0 mi Calm Calm - N/A   Clear
10:53 PM 66.9 °F - 54.0 °F 63% 29.79 in 10.0 mi South 3.5 mph - N/A   Clear
11:53 PM 66.9 °F - 53.1 °F 61% 29.80 in 10.0 mi SW 6.9 mph - N/A   Clear